When you browse on this site, cookies collect data to enhance your experience and personalize the content and advertising you see.
Visit our Privacy Policy to learn more. By continuing to use the site, you agree to this use of cookies and data.

Hourly Weather Volkonosha

Today, 13 July, Monday

Time Temperature Precipitation Wind Pressure Humidity
00:00 +9°C° 0 mm 3 mps 743 mmHg 94%
01:00 +8°C° 0 mm 3 mps 743 mmHg 94%
02:00 +8°C° 0 mm 2 mps 743 mmHg 94%
03:00 +7°C° 0 mm 2 mps 743 mmHg 94%
04:00 +7°C° 0 mm 3 mps 743 mmHg 95%
05:00 +7°C° 0 mm 3 mps 742 mmHg 95%
06:00 +9°C° 0 mm 3 mps 742 mmHg 90%
07:00 +10°C° 0 mm 3 mps 742 mmHg 85%
08:00 +12°C° 0 mm 3 mps 742 mmHg 80%
09:00 +13°C° 0.1 mm 4 mps 742 mmHg 75%
10:00 +14°C° 0.1 mm 4 mps 742 mmHg 70%
11:00 +17°C° 0.1 mm 4 mps 742 mmHg 65%
12:00 +17°C° 0.1 mm 4 mps 742 mmHg 63%
13:00 +18°C° 0.1 mm 4 mps 741 mmHg 61%
14:00 +18°C° 0.1 mm 4 mps 741 mmHg 59%
15:00 +18°C° 0.1 mm 3 mps 741 mmHg 61%
16:00 +18°C° 0.1 mm 3 mps 741 mmHg 62%
17:00 +18°C° 0.1 mm 3 mps 740 mmHg 64%
18:00 +17°C° 0 mm 3 mps 740 mmHg 69%
19:00 +16°C° 0 mm 2 mps 740 mmHg 75%
20:00 +14°C° 0 mm 2 mps 740 mmHg 80%
21:00 +13°C° 0 mm 2 mps 740 mmHg 84%
22:00 +12°C° 0 mm 2 mps 740 mmHg 87%
23:00 +10°C° 0 mm 2 mps 740 mmHg 91%

Tomorrow, 14 July, Tuesday

Time Temperature Precipitation Wind Pressure Humidity
00:00 +10°C° 0 mm 2 mps 741 mmHg 93%
01:00 +9°C° 0 mm 2 mps 741 mmHg 94%
02:00 +9°C° 0 mm 2 mps 741 mmHg 96%
03:00 +9°C° 0 mm 2 mps 740 mmHg 96%
04:00 +9°C° 0 mm 2 mps 740 mmHg 97%
05:00 +9°C° 0 mm 2 mps 740 mmHg 97%
06:00 +10°C° 0 mm 2 mps 740 mmHg 93%
07:00 +13°C° 0 mm 2 mps 740 mmHg 88%
08:00 +15°C° 0 mm 2 mps 741 mmHg 83%
09:00 +16°C° 0 mm 3 mps 740 mmHg 78%
10:00 +17°C° 0 mm 3 mps 740 mmHg 73%
11:00 +18°C° 0 mm 3 mps 740 mmHg 68%
12:00 +19°C° 0.2 mm 3 mps 740 mmHg 66%
13:00 +19°C° 0.2 mm 3 mps 740 mmHg 65%
14:00 +20°C° 0.2 mm 3 mps 740 mmHg 63%
15:00 +20°C° 0.1 mm 3 mps 740 mmHg 63%
16:00 +20°C° 0.1 mm 3 mps 739 mmHg 63%
17:00 +20°C° 0.1 mm 3 mps 739 mmHg 63%
18:00 +19°C° 0 mm 3 mps 739 mmHg 69%
19:00 +17°C° 0 mm 2 mps 739 mmHg 75%
20:00 +16°C° 0 mm 2 mps 739 mmHg 81%
21:00 +15°C° 0 mm 2 mps 739 mmHg 84%
22:00 +14°C° 0 mm 2 mps 739 mmHg 88%
23:00 +13°C° 0 mm 2 mps 739 mmHg 91%

Day after tomorrow, 15 July, Wednesday

Time Temperature Precipitation Wind Pressure Humidity
00:00 +12°C° 0 mm 2 mps 739 mmHg 92%
01:00 +12°C° 0 mm 2 mps 739 mmHg 93%
02:00 +12°C° 0 mm 2 mps 739 mmHg 94%
03:00 +12°C° 0 mm 2 mps 739 mmHg 95%
04:00 +12°C° 0 mm 2 mps 738 mmHg 96%
05:00 +12°C° 0 mm 2 mps 738 mmHg 97%
06:00 +13°C° 0 mm 2 mps 738 mmHg 93%
07:00 +14°C° 0 mm 3 mps 739 mmHg 89%
08:00 +16°C° 0 mm 3 mps 739 mmHg 85%
09:00 +17°C° 0 mm 3 mps 739 mmHg 79%
10:00 +19°C° 0 mm 3 mps 739 mmHg 73%
11:00 +20°C° 0 mm 3 mps 739 mmHg 67%
12:00 +20°C° 0.1 mm 3 mps 739 mmHg 65%
13:00 +21°C° 0.1 mm 3 mps 739 mmHg 64%
14:00 +21°C° 0.1 mm 2 mps 739 mmHg 63%
15:00 +21°C° 0.2 mm 2 mps 738 mmHg 64%
16:00 +21°C° 0.2 mm 2 mps 738 mmHg 65%
17:00 +21°C° 0.2 mm 2 mps 738 mmHg 66%
18:00 +21°C° 0.1 mm 1 mps 738 mmHg 71%
19:00 +19°C° 0.1 mm 1 mps 738 mmHg 76%
20:00 +16°C° 0.1 mm 0 mps 738 mmHg 81%
21:00 +15°C° 0 mm 0 mps 738 mmHg 83%
22:00 +14°C° 0 mm 0 mps 738 mmHg 85%
23:00 +14°C° 0 mm 1 mps 738 mmHg 87%

16 July, Thursday

Time Temperature Precipitation Wind Pressure Humidity
00:00 +14°C° 0 mm 1 mps 738 mmHg 88%
01:00 +14°C° 0 mm 1 mps 738 mmHg 89%
02:00 +13°C° 0 mm 1 mps 738 mmHg 90%
03:00 +13°C° 0 mm 1 mps 738 mmHg 90%
04:00 +13°C° 0 mm 1 mps 738 mmHg 90%
05:00 +13°C° 0 mm 1 mps 738 mmHg 91%
06:00 +14°C° 0 mm 0 mps 738 mmHg 86%
07:00 +16°C° 0 mm 0 mps 738 mmHg 81%
08:00 +18°C° 0 mm 0 mps 738 mmHg 77%
09:00 +19°C° 0.2 mm 0 mps 738 mmHg 72%
10:00 +22°C° 0.2 mm 1 mps 738 mmHg 66%
11:00 +24°C° 0.2 mm 1 mps 738 mmHg 61%
12:00 +24°C° 0.5 mm 1 mps 738 mmHg 61%
13:00 +24°C° 0.5 mm 1 mps 738 mmHg 61%
14:00 +24°C° 0.5 mm 1 mps 737 mmHg 61%
15:00 +24°C° 0.5 mm 1 mps 737 mmHg 64%
16:00 +24°C° 0.5 mm 1 mps 737 mmHg 67%
17:00 +23°C° 0.5 mm 1 mps 737 mmHg 71%
18:00 +22°C° 0.5 mm 1 mps 737 mmHg 74%
19:00 +21°C° 0.5 mm 1 mps 737 mmHg 77%
20:00 +17°C° 0.5 mm 0 mps 737 mmHg 81%
21:00 +18°C° 0.1 mm 1 mps 737 mmHg 83%
22:00 +18°C° 0.1 mm 1 mps 737 mmHg 85%
23:00 +16°C° 0.1 mm 1 mps 737 mmHg 87%

17 July, Friday

Time Temperature Precipitation Wind Pressure Humidity
00:00 +15°C° 0 mm 1 mps 737 mmHg 88%
01:00 +15°C° 0 mm 1 mps 737 mmHg 89%
02:00 +15°C° 0 mm 2 mps 737 mmHg 91%
03:00 +14°C° 0 mm 2 mps 737 mmHg 91%
04:00 +14°C° 0 mm 2 mps 737 mmHg 92%
05:00 +14°C° 0 mm 2 mps 737 mmHg 92%
06:00 +16°C° 0 mm 2 mps 737 mmHg 89%
07:00 +17°C° 0 mm 2 mps 738 mmHg 86%
08:00 +19°C° 0 mm 2 mps 738 mmHg 83%
09:00 +20°C° 0.7 mm 2 mps 738 mmHg 78%
10:00 +21°C° 0.7 mm 2 mps 738 mmHg 74%
11:00 +23°C° 0.7 mm 2 mps 738 mmHg 70%
12:00 +23°C° 1 mm 2 mps 738 mmHg 72%
13:00 +23°C° 1 mm 2 mps 738 mmHg 74%
14:00 +23°C° 1 mm 2 mps 738 mmHg 76%
15:00 +23°C° 0.6 mm 2 mps 738 mmHg 77%
16:00 +21°C° 0.6 mm 2 mps 738 mmHg 79%
17:00 +21°C° 0.6 mm 2 mps 738 mmHg 81%
18:00 +20°C° 0.2 mm 2 mps 738 mmHg 83%
19:00 +19°C° 0.2 mm 2 mps 738 mmHg 85%
20:00 +18°C° 0.2 mm 2 mps 738 mmHg 88%
21:00 +17°C° 0 mm 2 mps 738 mmHg 89%
22:00 +17°C° 0 mm 3 mps 738 mmHg 91%
23:00 +16°C° 0 mm 3 mps 739 mmHg 92%

18 July, Saturday

Time Temperature Precipitation Wind Pressure Humidity
00:00 +16°C° 0 mm 3 mps 739 mmHg 92%
01:00 +14°C° 0 mm 3 mps 739 mmHg 92%
02:00 +14°C° 0 mm 3 mps 739 mmHg 91%
03:00 +14°C° 0.1 mm 3 mps 739 mmHg 93%
04:00 +14°C° 0.1 mm 3 mps 739 mmHg 94%
05:00 +14°C° 0.1 mm 3 mps 739 mmHg 95%
06:00 +16°C° 0.1 mm 3 mps 739 mmHg 93%
07:00 +17°C° 0.1 mm 3 mps 739 mmHg 91%
08:00 +18°C° 0.1 mm 3 mps 740 mmHg 89%
09:00 +20°C° 0.4 mm 3 mps 740 mmHg 85%
10:00 +21°C° 0.4 mm 4 mps 740 mmHg 81%
11:00 +22°C° 0.4 mm 4 mps 740 mmHg 77%
12:00 +22°C° 0.9 mm 4 mps 740 mmHg 77%
13:00 +23°C° 0.9 mm 4 mps 740 mmHg 76%
14:00 +23°C° 0.9 mm 4 mps 740 mmHg 75%
15:00 +23°C° 0.6 mm 4 mps 740 mmHg 77%
16:00 +22°C° 0.6 mm 4 mps 740 mmHg 79%
17:00 +22°C° 0.6 mm 3 mps 740 mmHg 81%
18:00 +21°C° 0.2 mm 3 mps 740 mmHg 83%
19:00 +20°C° 0.2 mm 3 mps 740 mmHg 85%
20:00 +20°C° 0.2 mm 3 mps 740 mmHg 87%
21:00 +19°C° 0.2 mm 3 mps 741 mmHg 87%
22:00 +18°C° 0.2 mm 3 mps 741 mmHg 88%
23:00 +17°C° 0.2 mm 4 mps 741 mmHg 88%
Show more